sat.trackr.live / text

‹ back to catalog

STARLINK-4176

NORAD 53289 · 2022-086AZ

PAYLOAD ACTIVE UNKNOWN

§ Identity

Operator
Country
US
Launch date
2022-07-24
Launch site
AFETR
Launch vehicle
Mass (kg)
RCS (m²)

Purposes: comms

External: N2YO · Heavens-Above · Gunter

§ Orbital elements

Epoch: 2026-09-19T22:16:04.213056Z

Period
93.85 min
Inclination
53.1614°
Eccentricity
0.0000926
Mean motion
15.34385747 rev/d
Perigee alt
462.1 km
Apogee alt
463.4 km
Semi-major
6,840.9 km
B*
6.8167e-5
RAAN
12.0902°
Arg perigee
98.0304°
Mean anomaly
262.0803°
Rev number
23,078

§ Raw data

STARLINK-41761 53289U 22086AZ  26262.92782654  .00001927  00000+0  68167-4 0  99962 53289  53.1614  12.0902 0000926  98.0304 262.0803 15.34385747230782

JSON: /api/v1/satellites/53289 · /tle

For live sub-satellite position, see the globe view (requires WebGL).

§ Visibility from observer

Set your observer location to see the next 7 days of passes ≥ 10°. The values pass through the URL so the page stays shareable.

No JS? Fill the form by hand. The geolocation button needs JavaScript.